Temperature
0 -0 -1 -1 -2 -2 -2 -0 1 1 -0 -0 -2 -3 -4 -5 -6 -6 -6 -6 -6 -6 -6 -6 -5 -5 -5 -5 -5 -4 -4 -4 -4 -3 -3 -3 -3 -3 -3 -3 -3 -3 -3 -3
-2 -2 -2 -2 -2 -3 -3 -2 -2 -2 -2 -2 -4 -5 -5 -6 -6 -7 -7 -7 -7 -7 -6 -6 -6 -6 -6 -5 -5 -5 -5 -5 -4 -4 -4 -4 -4 -4 -4 -4 -4 -4 -4 -4
-0 -3 -2 -1 -3 -3 -4 -4 -3 -2 -2 -4 -5 -5 -6 -6 -7 -7 -7 -7 -7 -7 -7 -7 -7 -7 -7 -6 -6 -6 -5 -5 -5 -5 -5 -5 -5 -5 -5 -5 -4 -4 -4 -4
-1 -2 -1 -1 -4 -4 -4 -5 -5 -5 -5 -5 -6 -6 -7 -7 -7 -7 -8 -8 -8 -7 -7 -7 -7 -7 -7 -7 -7 -6 -6 -6 -6 -6 -6 -6 -6 -5 -5 -5 -5 -5 -5 -5
-2 -1 -1 -2 -4 -5 -5 -4 -5 -6 -6 -7 -8 -7 -6 -7 -7 -8 -8 -8 -8 -8 -8 -8 -8 -8 -8 -7 -7 -7 -7 -7 -7 -7 -7 -6 -6 -6 -6 -6 -6 -6 -6 -6
-3 -2 -1 -1 -5 -6 -5 -4 -6 -7 -7 -8 -8 -5 -5 -7 -8 -8 -9 -9 -9 -9 -9 -9 -8 -8 -8 -8 -8 -8 -8 -8 -8 -7 -7 -7 -7 -7 -7 -7 -7 -7 -7 -7
-3 -2 -2 -5 -7 -6 -3 -3 -7 -8 -8 -9 -8 -7 -8 -9 -9 -9 -9 -9 -9 -9 -9 -9 -9 -9 -9 -9 -9 -9 -9 -9 -8 -8 -8 -8 -8 -8 -8 -8 -8 -8 -8 -7
-4 -3 -2 -7 -7 -6 -5 -7 -8 -9 -9 -9 -10 -10 -10 -10 -10 -10 -10 -10 -10 -10 -10 -10 -10 -10 -10 -10 -10 -9 -9 -9 -9 -9 -9 -9 -9 -9 -9 -9 -9 -9 -8 -8
-5 -4 -6 -8 -8 -8 -8 -9 -9 -9 -10 -10 -10 -11 -11 -11 -11 -11 -11 -10 -10 -11 -10 -10 -10 -10 -10 -10 -10 -10 -10 -10 -10 -9 -9 -9 -9 -9 -9 -9 -9 -9 -9 -9
-7 -7 -8 -9 -9 -9 -9 -9 -10 -10 -10 -10 -11 -11 -11 -11 -11 -11 -11 -11 -11 -11 -11 -11 -11 -11 -11 -11 -11 -11 -11 -10 -10 -10 -10 -10 -10 -10 -10 -10 -10 -10 -10 -10
-8 -8 -9 -9 -9 -9 -10 -10 -10 -11 -11 -11 -11 -11 -12 -12 -12 -12 -12 -12 -12 -12 -12 -12 -12 -12 -12 -12 -11 -11 -11 -11 -11 -11 -11 -10 -10 -11 -10 -10 -11 -11 -10 -10
-7 -8 -9 -9 -10 -10 -10 -11 -11 -11 -11 -11 -12 -12 -12 -12 -12 -12 -12 -12 -12 -12 -12 -12 -12 -12 -12 -12 -12 -12 -12 -12 -12 -11 -11 -11 -11 -11 -11 -11 -11 -11 -11 -11
-10 -10 -10 -10 -10 -11 -11 -11 -11 -12 -12 -12 -12 -12 -13 -13 -13 -13 -13 -13 -13 -13 -13 -13 -13 -13 -13 -13 -13 -13 -13 -12 -12 -12 -12 -12 -12 -12 -12 -12 -11 -11 -11 -11
-10 -11 -11 -11 -11 -12 -12 -12 -12 -12 -12 -13 -13 -13 -13 -13 -14 -14 -14 -14 -14 -14 -14 -14 -14 -13 -13 -13 -13 -13 -13 -13 -13 -13 -13 -13 -13 -13 -13 -12 -12 -12 -12 -12
-11 -12 -12 -12 -12 -12 -12 -12 -13 -13 -13 -13 -13 -14 -14 -14 -14 -14 -14 -14 -14 -14 -14 -14 -14 -14 -14 -14 -14 -14 -14 -14 -13 -13 -13 -13 -13 -13 -13 -13 -13 -13 -12 -12
-12 -12 -12 -12 -13 -13 -13 -13 -13 -13 -14 -14 -14 -14 -14 -15 -15 -15 -15 -15 -15 -15 -15 -15 -14 -14 -14 -14 -14 -14 -14 -14 -14 -14 -14 -14 -14 -13 -13 -13 -13 -13 -13 -12
-13 -13 -13 -13 -13 -13 -14 -14 -14 -14 -14 -14 -15 -15 -15 -15 -15 -15 -15 -15 -15 -15 -15 -15 -15 -15 -15 -15 -15 -15 -15 -14 -14 -14 -14 -14 -14 -14 -14 -14 -13 -13 -13 -13
-13 -13 -13 -14 -14 -14 -14 -14 -14 -14 -15 -15 -15 -15 -15 -15 -15 -15 -16 -15 -15 -15 -15 -16 -15 -15 -15 -15 -15 -15 -15 -15 -15 -15 -14 -14 -14 -14 -14 -14 -14 -13 -13 -13
-13 -14 -14 -14 -14 -14 -14 -15 -15 -15 -15 -15 -16 -16 -16 -16 -16 -16 -16 -16 -16 -16 -16 -16 -16 -16 -15 -15 -15 -15 -15 -15 -15 -15 -15 -15 -15 -15 -15 -14 -14 -14 -14 -13
-13 -14 -14 -14 -14 -15 -15 -15 -15 -15 -15 -16 -16 -16 -16 -16 -16 -16 -16 -16 -16 -16 -16 -16 -16 -16 -16 -16 -16 -16 -15 -15 -15 -15 -15 -15 -15 -15 -15 -15 -14 -14 -14 -14
-14 -14 -14 -14 -15 -15 -15 -15 -15 -15 -16 -16 -16 -16 -16 -16 -16 -16 -16 -16 -16 -16 -16 -16 -16 -16 -16 -16 -16 -16 -16 -16 -16 -16 -16 -16 -16 -15 -15 -15 -15 -15 -14 -14
-14 -14 -15 -15 -15 -15 -15 -15 -16 -16 -16 -16 -16 -16 -16 -16 -16 -16 -16 -17 -16 -16 -16 -16 -16 -16 -16 -16 -16 -16 -16 -16 -16 -16 -16 -16 -16 -16 -16 -15 -15 -15 -15 -14
-14 -15 -15 -15 -15 -15 -15 -15 -16 -16 -16 -16 -16 -16 -17 -17 -17 -17 -17 -17 -17 -17 -17 -17 -17 -17 -17 -16 -16 -16 -16 -16 -16 -16 -16 -16 -16 -16 -16 -16 -15 -15 -15 -15
-15 -15 -15 -15 -15 -15 -15 -15 -16 -16 -16 -16 -16 -17 -17 -17 -17 -17 -17 -17 -17 -17 -17 -17 -17 -17 -17 -16 -16 -16 -16 -16 -16 -16 -16 -16 -16 -16 -16 -16 -16 -15 -15 -15
-15 -15 -15 -15 -15 -16 -16 -16 -16 -16 -16 -16 -16 -17 -17 -17 -17 -17 -17 -17 -17 -17 -17 -17 -17 -17 -17 -17 -17 -17 -17 -17 -17 -17 -17 -16 -16 -16 -16 -16 -16 -16 -16 -16
-15 -15 -15 -16 -16 -16 -16 -16 -16 -16 -17 -17 -16 -17 -17 -17 -17 -17 -17 -17 -17 -17 -17 -17 -17 -17 -17 -17 -17 -17 -17 -17 -17 -17 -17 -17 -17 -17 -16 -16 -16 -16 -16 -16
-16 -16 -16 -16 -16 -16 -17 -17 -17 -17 -17 -17 -17 -17 -17 -17 -17 -17 -17 -17 -17 -17 -17 -17 -17 -17 -17 -17 -17 -17 -17 -17 -17 -17 -17 -17 -17 -17 -17 -16 -16 -16 -16 -16
Wind_Speed
6 3 2 4 5 6 9 10 10 10 10 10 8 7 7 7 7 6 6 7 7 7 7 8 7 7 7 7 7 6 6 6 6 6 7 7 7 7 7 8 9 9 9 10
4 3 2 4 6 7 9 9 10 11 12 7 6 6 7 7 7 7 7 8 8 8 8 8 8 8 8 8 8 7 7 7 7 6 6 6 7 7 7 8 8 9 10 10
4 1 3 6 5 6 5 5 7 10 9 7 7 8 9 9 8 8 8 8 8 9 8 8 8 8 8 9 8 8 7 7 7 7 7 7 7 7 8 8 8 9 9 10
2 1 6 2 2 4 6 6 7 7 7 7 9 10 9 7 7 8 8 9 9 8 9 9 8 8 8 8 8 7 7 7 7 7 7 7 7 7 8 8 8 8 9 9
2 4 7 2 2 2 5 7 5 7 9 9 9 9 6 3 5 8 9 9 8 8 9 8 8 8 7 7 7 7 7 7 7 7 7 8 8 8 8 8 8 8 8 9
3 5 6 1 1 1 2 5 1 4 8 8 6 7 7 6 9 9 8 8 7 8 8 8 7 7 7 7 7 7 8 8 8 8 8 8 9 9 8 8 8 8 9 9
6 7 6 1 1 1 4 3 4 5 6 6 6 8 9 10 9 8 8 8 8 7 7 7 7 6 7 7 7 8 8 8 8 8 8 8 8 8 8 8 8 8 9 9
5 6 5 2 2 3 3 4 4 5 6 7 8 9 9 9 9 8 8 8 7 7 7 7 6 6 7 8 8 8 8 8 8 9 8 7 8 8 8 7 8 8 8 8
5 4 2 1 2 3 3 4 6 7 7 7 8 8 9 9 9 8 8 8 7 7 8 7 7 6 7 8 8 8 8 8 8 9 8 7 7 7 7 6 6 6 6 7
4 6 5 4 4 4 4 6 7 7 7 7 7 8 9 8 8 8 8 8 7 7 8 8 8 8 8 8 8 8 8 8 8 8 8 7 6 6 6 6 6 6 7 7
5 6 6 5 5 6 6 6 7 7 7 7 7 8 8 8 8 8 8 8 7 7 8 9 9 9 9 8 7 8 8 8 8 7 7 7 6 6 7 7 7 7 7 7
5 4 5 6 5 6 6 7 7 7 7 7 6 7 8 8 8 8 8 8 7 8 8 9 9 9 8 8 7 7 7 7 7 6 6 6 6 6 8 9 11 12 12 10
5 5 6 7 7 6 6 7 7 7 7 7 6 6 7 7 7 7 8 7 8 8 8 9 9 9 8 8 7 7 8 8 7 7 6 6 6 6 7 7 9 11 12 12
4 5 6 6 7 6 6 7 6 6 6 6 6 6 6 6 7 7 7 8 8 8 8 8 9 9 9 8 8 7 8 8 7 6 6 6 6 6 6 7 7 6 8 11
4 5 6 6 6 6 6 5 5 5 5 6 5 5 5 6 6 7 7 7 7 7 8 8 9 9 9 8 8 8 7 6 6 6 6 6 6 6 6 7 7 7 6 7
6 5 5 5 6 6 5 5 5 6 6 6 6 6 6 6 6 6 7 6 7 8 8 9 9 9 9 8 8 7 6 8 7 6 6 6 6 6 6 6 6 6 6 6
4 5 5 6 7 7 6 6 6 5 5 5 6 6 6 6 6 7 7 7 7 8 8 9 9 9 9 8 8 6 6 6 8 6 5 5 5 5 6 6 6 6 6 7
4 5 6 6 6 6 6 6 5 5 5 5 5 5 5 5 6 7 8 8 8 8 8 8 9 9 9 8 7 6 5 5 5 5 5 5 5 5 5 5 6 6 6 6
4 4 5 5 5 5 5 5 5 5 4 4 4 5 5 6 6 7 7 7 8 8 9 9 11 10 9 9 8 5 5 6 6 5 5 6 6 5 5 5 6 6 6 5
4 4 5 5 4 4 4 4 4 4 4 4 4 5 5 6 6 6 7 7 6 7 8 10 10 9 8 8 9 5 6 6 6 6 5 5 5 6 5 5 6 6 6 5
5 5 5 4 4 4 4 4 3 4 4 4 4 5 5 6 6 6 6 7 7 8 9 11 8 7 7 8 8 6 6 6 6 6 6 5 5 6 6 6 6 6 6 6
5 4 5 4 4 5 4 4 3 4 4 4 4 5 5 6 6 6 6 6 8 10 8 7 7 9 10 9 6 6 6 6 6 6 5 5 5 6 6 6 6 6 6 6
4 4 4 4 4 5 5 4 4 4 4 4 5 5 6 6 5 5 6 6 7 10 8 7 10 13 13 8 6 6 6 6 6 6 6 6 6 6 6 6 6 6 6 6
4 4 4 4 3 3 4 5 4 4 4 5 5 5 5 5 5 5 6 9 11 11 8 10 13 13 11 6 6 6 6 6 6 6 6 6 6 6 6 6 6 6 6 7
4 4 4 3 3 3 4 5 5 5 5 4 5 5 5 4 5 6 6 7 10 10 8 10 12 12 8 6 6 6 6 6 6 6 6 6 6 6 6 6 6 6 6 6
4 4 4 4 4 4 3 3 4 4 4 5 5 5 5 4 5 6 6 7 8 9 8 7 8 8 6 6 6 6 6 7 7 6 6 6 7 6 6 6 7 6 6 6
4 3 3 3 3 3 3 3 4 4 4 5 6 6 5 5 5 6 6 6 6 6 6 6 6 6 6 6 6 6 6 6 6 6 6 6 6 6 6 7 6 6 6 7
Wind_Direction
268 285 235 243 241 218 218 236 246 259 265 283 302 302 302 306 307 309 312 316 316 315 317 316 314 314 313 312 312 305 296 290 284 281 279 275 268 265 259 253 250 248 246 245
257 251 263 264 259 236 241 247 250 267 275 290 307 310 303 303 302 301 301 306 308 309 311 311 310 310 310 309 308 304 292 288 288 285 282 276 272 269 264 259 255 251 246 245
258 262 285 258 234 219 232 234 234 250 270 306 305 303 299 295 293 289 296 303 305 306 303 304 305 304 302 303 304 299 291 290 289 285 280 277 276 272 266 263 260 255 252 249
257 253 248 247 134 206 229 242 235 254 287 294 293 300 295 289 291 298 303 303 304 305 305 306 306 304 302 301 298 291 288 288 288 284 280 279 275 272 271 266 260 258 257 255
220 253 266 242 190 201 233 265 241 254 286 303 314 303 292 294 306 305 302 300 300 302 303 304 303 303 302 301 301 295 293 293 292 288 282 279 275 273 272 270 267 263 262 258
217 244 255 252 80 328 223 259 283 285 292 306 317 297 302 326 315 311 308 305 306 308 307 305 305 304 299 299 301 298 297 296 295 288 281 275 274 275 274 270 267 265 263 260
229 243 261 315 326 220 226 287 334 305 296 292 286 288 304 311 311 311 312 313 313 310 307 305 306 302 298 298 297 299 300 298 295 291 283 276 274 273 271 268 266 264 265 264
217 233 251 107 134 209 281 321 313 307 302 294 294 300 303 306 310 314 315 317 317 314 311 311 307 302 299 300 303 305 303 299 297 294 287 280 274 274 271 266 263 264 265 267
218 239 331 175 228 280 303 296 303 304 303 297 296 297 303 306 309 311 313 315 317 315 313 314 312 306 301 304 308 306 303 301 300 298 291 281 275 274 272 265 261 263 263 266
252 262 273 266 270 288 298 295 300 298 296 292 291 293 300 305 309 312 315 316 318 316 313 315 317 314 308 308 307 304 302 301 301 300 296 289 280 274 269 265 263 263 264 266
253 278 295 266 271 288 295 297 298 303 299 291 290 293 300 304 307 311 313 315 315 312 311 313 315 314 313 312 311 305 302 300 301 298 296 294 285 277 272 266 265 267 267 267
258 268 269 287 301 303 296 295 296 301 302 301 295 293 300 303 306 310 311 313 313 313 313 314 314 313 313 311 307 303 302 302 302 300 298 296 293 289 280 275 277 274 273 273
270 290 286 287 295 303 301 299 298 296 296 302 305 301 302 305 309 312 312 312 312 311 311 313 315 315 315 314 310 301 298 299 300 298 296 295 295 293 295 290 280 276 274 274
285 291 286 288 295 303 304 306 306 303 303 304 306 309 309 311 312 312 314 316 314 313 314 316 316 315 318 316 310 301 297 296 297 296 294 291 290 292 292 294 293 288 281 277
286 280 280 293 297 302 307 309 311 312 318 320 319 315 315 314 314 316 319 321 320 318 318 319 317 317 320 316 310 306 302 299 298 297 294 291 289 288 289 289 290 291 290 289
299 293 288 290 293 302 309 309 307 308 314 317 318 318 317 315 314 316 320 324 322 319 319 317 315 318 320 317 313 308 304 303 305 300 296 294 292 290 290 292 292 293 294 292
295 296 297 298 299 300 300 300 299 299 305 307 310 315 318 320 319 320 321 321 317 313 314 313 313 316 317 316 313 308 308 308 309 304 297 294 293 293 292 290 291 291 290 293
280 286 287 289 291 293 297 300 299 299 300 303 308 314 316 315 315 317 320 321 320 318 317 315 314 316 317 317 315 312 310 308 306 301 300 299 297 297 298 295 294 294 296 300
305 299 301 300 295 288 289 292 295 299 302 306 309 308 308 310 312 314 318 320 319 320 324 325 323 323 319 319 320 314 311 308 307 306 305 308 309 307 304 302 301 300 300 301
317 315 313 312 310 299 294 299 304 304 306 309 311 314 315 316 316 316 318 313 309 311 314 318 321 321 319 319 322 314 310 308 307 307 307 306 305 305 304 303 302 302 302 299
316 318 320 318 315 310 302 302 302 303 308 309 305 305 309 314 317 316 317 316 318 319 317 317 321 319 319 323 321 313 309 308 308 308 306 304 303 304 305 306 305 304 303 303
311 310 309 307 307 310 313 309 303 302 308 310 309 310 312 315 317 315 308 305 313 320 322 317 318 318 323 322 315 313 311 311 311 310 307 304 302 302 303 305 304 304 304 302
307 301 298 296 297 305 312 311 304 301 300 302 304 305 305 306 308 309 312 316 317 321 323 318 321 323 325 325 319 315 313 312 311 311 309 305 302 300 300 301 302 302 304 305
312 308 301 302 306 307 311 314 312 309 304 302 300 300 302 305 305 300 300 311 320 320 319 319 326 329 332 331 326 321 316 313 311 310 308 306 303 300 299 299 299 300 301 303
308 305 299 302 303 299 301 311 316 317 318 315 312 310 303 296 297 305 309 312 317 320 318 321 326 331 332 324 321 317 315 312 310 308 306 305 305 304 304 303 303 302 302 301
305 302 294 287 285 291 299 304 308 310 314 316 317 317 314 310 307 307 309 312 313 317 319 318 321 323 322 319 316 314 311 311 311 311 308 306 304 303 302 303 302 300 299 298
308 305 301 302 307 306 304 302 302 304 306 308 310 312 313 314 314 314 313 313 314 315 316 317 318 318 318 317 315 314 312 310 309 308 307 306 304 302 302 301 301 300 298 297
Height
1484 1485 1487 1488 1489 1491 1490 1482 1477 1472 1475 1476 1478 1479 1479 1478 1477 1475 1473 1471 1469 1467 1465 1464 1462 1460 1458 1456 1455 1453 1452 1451 1450 1450 1449 1449 1448 1448 1448 1448 1448 1448 1449 1449
1488 1488 1488 1488 1487 1488 1488 1486 1483 1480 1478 1478 1479 1479 1477 1476 1474 1472 1470 1468 1466 1464 1463 1461 1459 1457 1455 1453 1451 1450 1448 1446 1446 1445 1444 1443 1443 1442 1442 1441 1441 1442 1441 1442
1479 1488 1487 1480 1483 1485 1485 1485 1483 1478 1476 1477 1477 1476 1474 1473 1471 1469 1467 1465 1463 1461 1459 1457 1455 1453 1451 1449 1447 1445 1443 1442 1441 1440 1439 1438 1437 1436 1435 1435 1435 1435 1435 1434
1482 1485 1480 1475 1482 1482 1482 1482 1482 1479 1478 1477 1475 1473 1470 1469 1468 1466 1464 1462 1460 1458 1455 1454 1451 1449 1447 1445 1442 1440 1439 1437 1436 1435 1433 1433 1431 1430 1430 1429 1429 1428 1428 1427
1482 1478 1470 1476 1480 1481 1481 1477 1477 1477 1476 1475 1472 1469 1466 1466 1465 1463 1461 1459 1457 1454 1452 1449 1447 1445 1442 1440 1437 1435 1434 1432 1431 1429 1428 1427 1425 1424 1424 1423 1422 1421 1421 1421
1483 1477 1468 1470 1479 1479 1480 1473 1474 1474 1473 1472 1471 1466 1461 1462 1461 1459 1457 1455 1452 1450 1448 1445 1442 1440 1438 1435 1433 1431 1429 1427 1426 1424 1422 1421 1420 1418 1418 1417 1415 1415 1414 1414
1481 1476 1468 1477 1479 1479 1475 1470 1474 1473 1471 1470 1469 1467 1463 1460 1457 1456 1453 1451 1448 1446 1444 1441 1439 1437 1434 1431 1428 1426 1424 1422 1421 1419 1418 1416 1414 1413 1412 1411 1410 1409 1408 1407
1480 1476 1471 1478 1478 1477 1473 1473 1472 1470 1469 1467 1465 1462 1459 1457 1454 1452 1449 1447 1444 1442 1439 1437 1435 1433 1430 1427 1425 1423 1420 1418 1416 1414 1413 1411 1409 1407 1406 1405 1404 1403 1402 1401
1478 1475 1475 1476 1475 1474 1473 1472 1470 1468 1466 1464 1461 1458 1456 1453 1450 1448 1446 1443 1441 1438 1436 1433 1431 1429 1426 1423 1421 1419 1416 1414 1411 1409 1407 1406 1404 1402 1401 1400 1399 1397 1396 1395
1479 1475 1475 1474 1473 1472 1471 1469 1467 1466 1463 1461 1457 1454 1452 1449 1447 1444 1442 1440 1437 1435 1432 1429 1427 1425 1422 1420 1417 1414 1412 1409 1407 1405 1403 1401 1399 1398 1396 1395 1393 1392 1391 1390
1477 1474 1473 1471 1470 1469 1467 1466 1464 1462 1460 1457 1454 1451 1449 1446 1443 1441 1439 1437 1434 1431 1428 1426 1423 1421 1418 1416 1413 1410 1407 1405 1403 1400 1398 1396 1394 1393 1391 1389 1388 1387 1386 1385
1472 1471 1472 1469 1467 1466 1464 1462 1460 1457 1455 1453 1451 1448 1446 1443 1440 1438 1435 1433 1430 1428 1425 1422 1420 1417 1414 1412 1409 1406 1403 1401 1398 1396 1394 1392 1390 1388 1386 1385 1383 1382 1381 1380
1471 1469 1468 1466 1464 1462 1460 1458 1456 1454 1451 1449 1447 1445 1442 1439 1437 1434 1432 1430 1427 1424 1422 1419 1416 1413 1411 1408 1405 1403 1400 1397 1395 1392 1390 1388 1386 1383 1381 1379 1378 1377 1375 1374
1468 1467 1464 1462 1461 1459 1456 1454 1452 1450 1448 1446 1443 1441 1439 1436 1434 1431 1429 1426 1424 1421 1418 1416 1413 1410 1407 1404 1402 1399 1396 1393 1391 1389 1387 1384 1382 1380 1378 1375 1373 1371 1370 1369
1464 1463 1462 1459 1457 1455 1453 1451 1448 1446 1444 1442 1440 1438 1435 1433 1431 1428 1426 1424 1421 1418 1415 1413 1410 1407 1404 1401 1398 1395 1392 1389 1387 1385 1383 1381 1378 1376 1374 1372 1370 1367 1365 1364
1461 1459 1458 1456 1453 1452 1450 1447 1445 1443 1441 1439 1437 1435 1433 1431 1428 1426 1424 1421 1418 1415 1413 1410 1407 1404 1401 1398 1395 1391 1388 1386 1384 1382 1379 1377 1375 1373 1371 1368 1366 1364 1362 1361
1458 1455 1453 1452 1450 1448 1447 1445 1443 1441 1438 1436 1434 1432 1430 1428 1426 1423 1421 1419 1416 1413 1410 1407 1404 1401 1398 1395 1392 1389 1386 1383 1381 1379 1376 1374 1372 1369 1367 1365 1363 1361 1359 1358
1455 1454 1452 1450 1447 1445 1443 1442 1440 1438 1436 1434 1432 1430 1428 1426 1423 1421 1418 1416 1413 1410 1408 1405 1402 1399 1396 1393 1389 1387 1384 1381 1378 1376 1374 1371 1369 1367 1365 1363 1360 1358 1356 1355
1452 1451 1449 1447 1445 1443 1441 1439 1437 1436 1434 1432 1430 1428 1426 1424 1421 1419 1416 1413 1410 1407 1405 1402 1399 1396 1393 1390 1387 1384 1381 1378 1376 1373 1371 1369 1366 1364 1362 1360 1358 1356 1354 1352
1450 1448 1446 1444 1442 1440 1438 1437 1435 1433 1432 1430 1428 1425 1423 1421 1419 1417 1414 1411 1409 1406 1403 1400 1397 1394 1391 1388 1385 1382 1379 1376 1373 1371 1368 1366 1364 1361 1359 1357 1355 1353 1351 1349
1448 1446 1444 1442 1440 1438 1437 1435 1433 1431 1429 1428 1426 1423 1422 1419 1417 1415 1411 1409 1407 1404 1400 1397 1394 1391 1389 1386 1383 1380 1377 1374 1371 1368 1366 1363 1361 1359 1356 1354 1352 1350 1348 1346
1445 1443 1442 1440 1438 1436 1435 1433 1431 1429 1427 1426 1424 1422 1419 1417 1415 1412 1410 1407 1404 1401 1398 1395 1392 1390 1387 1384 1381 1378 1375 1372 1369 1366 1364 1361 1358 1356 1354 1352 1349 1347 1345 1343
1443 1441 1440 1438 1436 1434 1432 1431 1429 1427 1425 1423 1422 1419 1417 1415 1413 1410 1407 1405 1402 1399 1396 1393 1390 1388 1385 1382 1378 1375 1372 1369 1367 1364 1361 1359 1356 1354 1352 1349 1347 1345 1343 1340
1441 1439 1437 1436 1434 1432 1430 1428 1427 1425 1423 1421 1419 1417 1415 1412 1410 1408 1405 1402 1399 1396 1393 1391 1388 1385 1382 1379 1376 1373 1370 1367 1364 1361 1359 1356 1354 1351 1349 1346 1344 1342 1340 1337
1439 1437 1435 1433 1431 1430 1428 1426 1424 1422 1421 1419 1417 1415 1413 1410 1408 1405 1402 1399 1397 1394 1390 1388 1385 1382 1379 1376 1373 1370 1367 1364 1362 1359 1356 1353 1351 1349 1346 1344 1341 1339 1337 1334
1437 1435 1433 1431 1429 1428 1426 1424 1422 1420 1418 1416 1414 1412 1410 1408 1405 1402 1400 1397 1394 1391 1388 1385 1382 1380 1377 1374 1371 1368 1365 1362 1359 1356 1354 1351 1348 1346 1343 1341 1339 1336 1334 1332
1434 1432 1430 1429 1427 1425 1424 1422 1420 1418 1416 1414 1412 1410 1408 1405 1403 1400 1397 1394 1391 1389 1386 1383 1380 1377 1374 1372 1369 1366 1363 1360 1357 1354 1351 1349 1346 1343 1341 1339 1336 1334 1331 1329